Regional Weather Roundup
Issued by NWS Bismarck, ND

Home | Current Version | Previous Version | Text Only | Print | Product List | Glossary On
Versions: 1 2 3 4 5 6 7 8 9 10 11 12 13 14 15 16 17 18 19 20 21 22 23 24 25 26 27 28 29 30 31 32 33 34 35 36 37 38 39 40 41 42 43 44 45 46 47 48 49 50
677
ASUS43 KBIS 250810
RWRBIS

NWR BROADCAST TEXT
NATIONAL WEATHER SERVICE BISMARCK ND
300 AM CDT MON JUL 25 2016

NOTE: "FAIR" INDICATES FEW OR NO CLOUDS BELOW 12,000 FEET WITH NO
SIGNIFICANT WEATHER AND/OR OBSTRUCTIONS TO VISIBILITY.


CITY           SKY/WX    TMP DP  RH WIND       PRES   REMARKS
WILLISTON      CLEAR     65  57  75 N6        29.99F
MINOT          CLEAR     65  60  84 CALM      30.02R
MINOT AFB      CLEAR     59  57  91 SW3       30.01S
BISMARCK       CLEAR     63  58  83 E5        30.03F
DICKINSON      CLEAR     57  52  83 S7        30.02F
GARRISON         N/A     61  57  87 E3        30.03S
HETTINGER ARPT CLEAR     66  48  52 SE8       30.06F
JAMESTOWN      CLEAR     61  59  93 CALM      30.03S
BEACH          FAIR      61  50  67 S6        30.04F
CARRINGTON     FAIR      61  57  88 SW5       30.06S
HAZEN          FAIR      59  55  88 CALM      30.04S
LINTON         FAIR      59  59 100 E6        30.06F
MANDAN         FAIR      63  55  77 S5        30.04F
OAKES            N/A    N/A N/A N/A MISG        N/A
STANLEY        FAIR      59  59 100 CALM      30.06S
WATFORD CITY     N/A    N/A N/A N/A MISG        N/A
$$

CITY           SKY/WX    TMP DP  RH WIND       PRES   REMARKS
GRAND FORKS    CLEAR     61  58  90 W6        29.97R
GRAND FORKS AF CLEAR     63  59  86 W7        29.98R
DEVILS LAKE    NOT AVBL
FARGO          CLEAR     62  57  83 CALM      30.00R
CAVALIER       FAIR      63  59  88 W8        29.96R
GRAFTON        FAIR      63  63 100 W6        29.98R
GWINNER        FAIR      61  59  94 W8        30.04S
LANGDON        FAIR      57  57 100 SW5       30.01R
ROLLA          FAIR      55  55 100 W5        30.03S
$$

CITY           SKY/WX    TMP DP  RH WIND       PRES   REMARKS
ABERDEEN       CLEAR     60  56  86 SW5       30.05S
MOBRIDGE       CLEAR     69  58  67 S9        30.03S
BUFFALO          N/A     68  50  52 SE9       29.98S
RAPID CITY     CLEAR     68  51  54 S8        30.10F
GLASGOW        CLEAR     62  51  67 E10       29.97F
SIDNEY         CLEAR     61  54  77 N5        29.97F
WOLF POINT     CLEAR     61  54  77 NE6       29.97F
GLENDIVE       CLEAR     68  49  50 S7        29.98F
MILES CITY     CLEAR     73  46  38 SE8       29.96F
BAKER          CLEAR     63  49  60 SE10      30.02F
$$

CITY           SKY/WX    TMP DP  RH WIND       PRES   REMARKS
BILLINGS       CLEAR     74  37  26 S6        30.02F
GREAT FALLS    CLEAR     56  42  59 SW5       30.05R
REGINA         CLEAR     57  55  94 S8        29.99F
ESTEVAN        CLEAR     59  57  94 SE7       30.02S
$$





USA.gov is the U.S. government's official web portal to all federal, state and local government web resources and services.